Theta_e
344 347 348 350 351 350 350 350 349 347 347 346 346 345 345 343 341 341 342 343 342 343 346 346 346 347 347 346 347 347 346 346 346 346 345 345 345 345 345 345 344 345 344 344 344 344 345 345 344 344 345 343 343 341 340 341 341 341 341 342 342 341 341 341 340 341 340 338 337 337 335 333 335 335 334 332 330 329 335 332 334 333 336 336 338
343 348 349 352 351 350 351 350 349 347 346 346 345 345 345 344 341 340 341 342 342 342 346 347 347 346 346 346 347 346 346 346 346 345 345 345 345 345 345 345 344 345 345 344 344 344 344 345 344 345 344 343 342 339 338 339 340 340 341 341 340 339 338 337 337 337 338 338 339 338 335 334 334 333 331 332 334 332 336 331 331 332 332 330 334
346 347 349 351 351 351 351 350 349 347 346 345 345 345 344 343 342 340 341 342 342 342 346 345 346 346 346 347 346 346 346 346 345 345 345 345 344 345 346 346 345 345 345 344 344 344 344 345 345 345 343 343 341 341 340 338 339 339 338 339 338 337 336 335 333 334 335 335 335 336 337 337 338 337 336 334 333 332 334 331 331 333 331 328 329
344 346 349 351 351 351 350 350 348 346 346 345 345 344 344 343 343 342 340 341 342 345 346 346 347 346 346 347 346 346 345 345 345 345 345 345 342 341 340 339 340 341 345 345 344 344 343 345 344 343 343 341 340 339 338 337 338 338 338 337 337 336 335 334 334 333 333 333 332 332 334 334 335 333 332 331 330 330 332 330 329 331 332 333 331
344 346 348 351 352 351 350 349 347 346 346 345 344 343 344 343 343 342 341 341 341 347 346 346 346 346 346 346 346 346 345 346 345 345 344 342 341 340 340 339 338 339 339 339 339 338 338 339 343 342 340 339 338 338 339 338 339 340 339 338 336 335 334 333 333 333 332 332 333 333 330 330 334 330 329 327 329 332 331 330 329 326 328 329 330
344 346 348 349 350 352 350 348 347 346 346 345 344 344 343 343 342 341 341 341 341 341 346 347 346 345 346 346 345 345 345 345 345 344 341 340 339 339 339 338 338 337 337 336 337 336 335 335 336 336 337 339 337 336 337 340 339 339 337 336 335 334 334 333 333 335 334 330 332 329 328 329 329 329 331 331 329 330 328 328 329 329 328 328 327
345 347 348 349 349 349 349 348 347 347 346 345 344 344 344 344 343 341 342 341 342 341 340 346 345 344 344 344 345 345 345 344 343 340 339 339 339 337 337 338 336 335 335 335 335 334 336 335 335 335 334 334 334 335 337 338 337 337 337 336 334 333 333 334 334 334 333 334 331 330 329 329 330 332 333 332 329 328 328 327 327 327 328 327 327
346 347 348 348 349 349 347 347 347 346 346 345 344 344 344 344 343 342 342 342 342 340 339 344 345 344 344 345 345 344 341 341 339 339 338 338 338 337 336 335 334 334 333 335 335 335 335 333 333 332 331 331 332 334 335 335 335 335 334 335 333 332 333 334 333 334 332 330 331 330 330 329 330 332 333 333 329 332 330 327 330 329 327 327 326
345 346 347 348 349 346 346 347 348 346 346 346 345 344 343 343 343 343 342 342 342 340 340 339 341 344 343 343 344 342 340 339 337 336 339 338 337 336 335 334 333 331 331 332 334 333 332 331 330 332 331 331 331 334 333 333 333 333 333 333 332 331 332 333 332 330 332 331 330 331 331 330 330 331 331 335 332 332 330 328 328 327 328 327 327
345 346 347 348 349 345 345 346 347 346 346 346 345 344 344 343 343 343 342 342 341 340 340 339 340 340 340 339 337 337 336 337 337 334 335 336 335 334 334 332 331 331 331 330 331 331 331 330 331 331 330 331 330 331 330 332 332 332 332 332 331 331 330 331 331 332 329 330 330 330 332 336 330 330 329 334 336 335 335 331 332 331 331 327 329
345 345 346 347 349 343 345 347 347 347 347 345 345 345 344 344 343 343 343 342 340 340 340 340 339 339 338 338 337 336 336 335 336 335 336 336 335 333 333 332 332 331 330 331 331 332 331 330 330 330 330 330 329 330 331 332 332 330 331 333 332 330 329 329 332 329 330 330 330 331 331 333 332 331 331 334 336 336 334 334 333 332 331 330 332
344 345 346 347 348 342 344 346 347 348 347 346 346 346 346 345 345 343 343 343 341 340 340 340 339 339 339 338 337 336 335 334 334 335 336 335 334 333 333 331 330 331 329 329 330 331 331 333 332 329 329 329 330 330 330 330 330 330 331 334 333 332 330 328 329 329 331 330 330 332 332 330 330 330 332 335 336 336 336 337 337 335 336 336 336
344 344 346 349 349 342 343 344 346 347 347 346 347 347 347 345 345 344 343 343 342 342 340 340 341 339 339 338 337 337 335 334 334 334 336 335 334 334 332 332 332 331 332 330 330 330 331 332 333 331 332 328 330 329 329 329 330 330 332 334 335 333 330 326 328 329 330 330 330 332 331 331 331 330 331 332 333 334 334 334 336 336 335 334 334
343 344 345 347 347 345 341 343 344 345 346 346 347 347 346 346 345 345 343 343 343 342 341 340 341 340 340 338 338 337 335 335 334 336 336 335 334 334 333 333 333 330 331 331 331 330 331 331 331 330 331 332 330 329 330 331 330 330 331 334 334 331 327 332 329 328 329 329 329 329 330 330 331 331 331 331 332 333 333 334 336 336 334 334 334
342 344 345 345 346 348 344 341 342 343 344 345 346 347 346 345 345 344 344 343 343 343 342 341 341 340 340 339 339 337 337 338 336 338 339 337 335 335 333 331 333 333 333 332 332 331 330 331 330 331 331 332 331 332 332 332 333 334 333 334 334 331 326 329 328 328 327 328 329 328 329 330 328 329 330 331 332 333 333 333 334 335 335 335 334
344 344 345 345 345 347 348 345 340 340 341 342 343 344 346 345 344 345 344 344 343 342 343 342 341 340 341 340 339 338 338 338 339 339 338 338 336 334 333 333 331 331 332 332 332 332 332 331 331 331 331 331 331 332 332 332 333 333 333 334 334 331 327 329 330 330 328 328 329 328 329 329 327 328 330 331 332 334 334 334 335 336 336 336 335
343 345 344 344 346 345 345 347 343 338 339 339 340 342 345 345 344 344 343 343 343 342 341 340 341 341 341 342 342 339 338 338 339 339 337 338 336 338 339 335 334 333 333 331 331 332 332 332 333 332 331 331 331 331 332 331 332 332 332 332 332 330 329 329 330 330 329 330 329 327 329 329 328 329 330 331 332 332 334 335 335 335 336 336 336
343 343 343 344 344 344 344 345 346 346 346 341 338 339 340 342 342 342 343 343 342 342 342 341 341 342 342 341 341 341 341 341 341 339 337 337 337 335 336 337 335 335 334 334 333 333 333 333 332 332 332 332 332 332 331 332 332 332 333 332 331 329 328 327 330 330 331 331 329 330 328 327 329 331 330 330 331 332 333 335 335 335 334 336 336
342 342 343 343 341 343 344 344 345 343 344 344 345 344 336 337 338 340 340 341 341 340 340 340 339 339 339 339 340 341 341 340 339 338 337 337 336 334 333 336 336 335 335 335 334 334 334 333 333 332 332 333 333 331 331 332 333 333 332 332 330 328 327 329 329 331 331 329 329 329 329 329 331 333 333 331 332 333 334 334 334 334 334 334 334
341 341 341 343 342 342 343 343 343 343 343 343 343 344 336 333 334 335 336 336 337 337 336 336 335 334 333 332 336 340 340 340 338 339 335 335 336 333 332 333 336 336 335 335 334 334 334 334 334 333 333 332 333 332 333 335 335 334 332 330 329 326 333 331 331 330 329 329 330 329 329 329 331 334 334 334 334 334 334 334 333 333 333 333 334
338 339 340 341 342 342 341 342 342 342 342 342 342 343 343 333 333 332 331 331 332 332 331 330 330 330 331 331 333 341 341 339 340 340 336 340 331 328 330 332 334 336 336 336 335 335 335 334 334 334 334 334 335 335 333 333 333 333 331 328 326 332 331 331 330 330 330 330 329 330 330 330 331 332 334 335 334 334 334 333 334 334 335 336 334
336 338 339 340 340 341 341 341 342 342 342 341 341 342 343 337 340 342 341 337 331 331 337 341 341 343 329 337 340 341 341 339 338 338 339 339 336 327 328 329 332 334 336 336 337 336 335 335 334 334 334 334 333 333 333 331 329 330 328 325 332 332 332 331 330 330 330 330 330 330 329 330 331 333 333 335 335 335 334 334 334 335 335 334 335
335 337 337 338 339 339 341 340 341 341 342 341 341 341 341 339 340 339 340 335 339 339 339 340 340 341 342 342 339 341 341 342 339 338 339 330 336 327 327 328 330 332 333 335 335 336 336 337 336 335 335 335 335 336 335 335 334 328 326 332 332 332 332 331 331 330 330 330 330 330 329 330 332 334 334 335 336 335 335 335 335 335 334 334 334
334 336 336 338 338 338 339 340 340 341 340 340 341 340 340 339 339 339 338 338 338 338 339 338 338 340 340 341 341 341 341 342 340 340 339 340 338 326 325 326 327 328 328 333 334 333 333 334 334 333 335 334 335 334 333 333 333 334 334 333 333 332 332 331 331 330 330 330 330 329 329 330 331 332 334 335 336 336 335 335 335 334 334 334 334
335 336 336 336 337 337 338 339 340 341 340 339 339 339 339 337 337 337 337 335 335 336 336 337 337 338 339 338 340 341 341 341 341 341 340 339 338 338 337 337 337 337 329 337 336 335 336 335 334 334 335 335 334 334 334 332 331 332 332 332 331 331 332 331 331 330 331 331 330 329 328 329 330 332 334 335 335 335 335 335 335 334 334 334 334
336 334 335 336 336 337 338 338 338 338 339 339 339 339 339 336 335 335 334 335 336 334 334 335 335 337 337 338 339 340 340 340 341 340 342 340 338 337 336 336 336 335 335 334 335 334 334 334 334 333 333 333 333 333 333 332 332 331 331 330 330 330 330 331 331 331 331 330 330 328 327 327 328 331 333 334 334 335 336 335 334 334 333 334 335
333 333 335 335 336 337 338 338 337 337 337 338 338 339 338 337 335 334 333 334 334 333 333 333 334 335 335 336 335 336 337 339 339 341 340 340 338 338 337 337 336 335 335 334 333 333 333 333 333 333 333 332 332 332 332 332 332 331 331 331 331 330 330 330 330 330 330 330 329 326 327 328 329 331 332 334 335 335 336 335 335 335 334 334 335
332 332 334 335 335 335 337 337 336 336 336 337 337 337 338 337 335 333 333 332 333 333 332 333 334 333 334 332 333 336 336 337 338 339 340 341 339 339 338 336 336 336 335 334 333 333 333 333 334 333 331 331 330 331 331 332 331 331 330 330 329 330 329 330 329 330 330 330 330 327 325 327 328 329 330 333 334 335 336 336 336 336 335 335 335
330 331 333 333 334 335 335 335 336 336 336 336 335 336 337 336 334 332 332 331 333 333 333 334 333 332 333 332 333 334 335 336 336 337 338 339 340 340 340 337 336 335 336 335 334 333 333 333 332 332 332 331 331 331 331 330 330 331 331 330 329 330 330 330 329 329 329 329 330 328 324 325 326 327 329 332 334 335 335 335 336 335 335 335 335
331 332 332 333 334 334 334 334 335 335 335 335 334 334 335 334 332 332 333 333 332 333 334 333 332 333 331 331 330 332 334 334 335 336 337 336 337 339 338 339 339 338 336 334 335 334 333 333 333 333 332 332 331 331 331 330 329 330 331 331 330 330 330 329 329 329 329 329 329 329 323 323 325 326 327 329 331 333 334 334 335 335 335 336 335
331 331 332 333 334 334 334 334 334 334 335 334 334 334 335 333 333 333 333 332 332 333 333 332 332 332 332 331 330 330 331 333 333 335 336 336 336 335 334 335 335 335 335 334 335 334 333 332 332 331 331 332 330 331 330 330 330 331 332 331 330 329 329 329 329 329 328 328 329 329 329 323 323 324 326 328 330 332 333 334 334 334 335 336 336
331 331 333 334 333 333 333 334 334 334 333 333 334 334 334 334 333 333 332 333 333 332 332 332 331 332 332 332 331 330 330 330 330 331 332 332 333 334 334 333 333 332 333 334 335 336 335 335 333 333 332 331 330 330 331 330 331 332 332 330 330 329 328 328 328 328 327 328 328 328 329 328 323 322 324 325 327 329 331 332 333 333 334 335 336
332 333 334 334 332 333 333 333 333 334 332 332 334 334 334 333 333 333 333 333 332 332 331 332 331 332 332 331 329 329 329 328 328 328 330 330 331 331 331 331 332 332 333 333 333 333 332 332 332 333 332 331 328 328 330 329 328 328 328 328 328 327 327 327 327 327 327 327 328 328 329 330 330 324 322 322 324 326 329 330 332 332 333 334 334
330 333 333 332 334 334 333 333 333 332 332 332 333 333 334 334 333 333 333 334 333 332 331 331 330 330 330 330 329 329 328 327 327 327 328 328 329 329 329 330 331 332 332 331 330 330 329 329 329 329 325 328 327 327 327 327 328 327 327 327 327 327 326 326 326 326 327 327 328 330 329 330 331 332 333 322 321 323 326 328 330 331 332 332 333
328 331 331 332 333 334 334 332 332 332 332 331 331 332 334 333 333 333 333 333 333 333 332 332 331 330 330 329 329 328 328 328 328 326 326 327 326 326 327 327 329 329 328 328 327 328 328 327 327 326 326 325 326 325 325 326 325 325 326 326 326 326 327 326 327 326 326 328 329 329 330 330 330 331 331 330 324 321 323 325 328 329 330 330 331
322 327 329 332 332 333 334 333 334 333 332 331 331 332 332 333 333 330 332 333 332 332 333 333 332 331 330 329 329 328 328 328 328 327 327 326 326 327 327 329 328 328 328 328 328 326 327 327 327 326 324 324 324 325 325 325 324 324 326 326 326 326 326 326 326 327 328 328 329 330 330 329 329 329 325 328 328 328 323 324 326 327 327 328 329
316 319 325 328 331 332 332 332 332 333 333 332 332 332 332 332 332 332 332 333 331 332 333 333 333 332 331 330 330 329 329 328 328 328 327 327 327 328 329 329 329 328 327 326 326 327 326 326 326 326 326 323 324 324 324 324 325 325 325 325 325 325 325 326 327 327 329 329 329 329 329 329 328 319 327 327 328 328 324 320 323 324 324 325 326
310 311 314 321 326 330 332 332 333 333 334 334 333 332 332 331 332 332 331 331 332 333 334 334 332 332 332 331 331 330 329 329 328 328 327 327 328 328 329 329 329 328 327 327 326 327 327 326 325 326 326 325 323 323 323 324 325 324 324 324 325 325 325 326 327 324 327 327 328 329 329 328 328 328 327 328 328 327 329 323 319 320 320 320 321
309 310 310 311 314 321 328 331 331 332 333 333 334 334 333 332 332 332 332 331 331 333 333 333 333 333 332 333 332 330 329 329 329 328 327 327 327 328 328 329 329 328 327 326 326 326 326 326 325 325 326 326 324 324 324 324 324 324 324 324 324 325 326 326 326 327 327 328 328 326 328 327 327 327 327 328 328 328 328 329 330 330 328 317 319
308 308 309 310 311 313 316 323 329 331 332 332 332 332 331 330 329 330 329 329 330 330 332 333 334 333 333 332 332 331 330 329 329 329 328 327 327 327 328 329 329 328 326 325 326 326 325 325 325 324 325 325 326 324 324 323 323 323 321 323 324 324 325 326 327 327 328 327 327 327 326 327 328 328 328 328 329 329 329 330 327 330 331 324 317
307 307 308 308 309 310 312 312 316 326 330 330 330 330 329 329 329 328 327 329 329 330 330 331 331 332 333 332 331 331 331 330 329 330 329 326 328 329 329 328 328 328 327 327 328 328 327 326 325 325 323 323 324 325 323 323 320 319 321 323 324 326 325 326 326 327 327 326 326 326 326 327 328 328 329 329 329 329 330 330 330 331 331 332 327
305 306 306 307 308 310 310 311 314 314 320 328 330 329 330 329 329 328 329 330 329 329 329 330 331 332 332 331 331 331 331 331 330 330 330 330 329 328 328 328 328 328 328 329 329 326 328 326 326 325 326 323 322 325 324 321 318 317 317 319 320 323 326 325 324 324 325 326 326 326 327 327 327 328 329 329 329 330 330 330 330 330 330 330 330
305 306 306 306 307 308 308 309 312 314 316 321 327 328 330 331 330 330 329 330 332 332 332 332 333 332 332 331 331 331 331 330 331 330 329 329 329 329 328 328 329 328 327 327 327 327 327 326 326 324 323 324 323 324 324 323 319 321 319 316 316 317 320 318 322 323 324 325 324 325 326 327 327 328 328 328 328 328 329 329 329 329 329 329 328
303 304 305 305 306 307 306 308 311 313 317 320 322 327 329 331 331 331 331 330 329 330 331 331 331 331 330 331 331 331 331 330 330 330 329 329 329 329 329 329 329 329 328 327 327 326 326 325 325 324 324 322 322 321 323 323 320 319 314 317 317 316 312 318 319 322 324 324 324 325 326 326 327 328 327 326 327 328 328 328 329 329 328 328 328
302 303 304 304 305 306 306 307 308 309 311 314 319 326 327 327 328 329 330 329 329 328 327 327 328 329 329 330 331 331 331 330 331 331 330 330 330 329 329 329 329 329 328 327 326 326 327 326 325 324 323 322 321 323 323 321 322 323 320 317 314 314 314 318 317 319 321 321 323 325 325 325 326 326 327 327 328 328 328 328 328 327 327 327 328
300 302 303 304 304 305 305 306 307 308 308 310 313 321 326 325 325 324 323 324 323 324 324 324 326 327 328 330 331 331 331 331 331 331 331 330 330 330 330 329 329 328 328 327 327 327 327 326 325 324 323 324 322 322 322 322 321 322 324 324 323 318 319 318 315 313 318 321 323 324 325 325 325 325 326 327 327 327 327 327 327 327 327 327 326
300 301 302 303 304 304 305 305 305 306 308 308 310 311 317 325 326 325 325 324 324 325 326 327 327 329 330 329 330 331 331 331 331 331 332 331 331 331 330 330 329 329 328 327 326 326 327 327 327 325 324 324 323 320 321 322 321 320 322 323 324 324 324 320 316 319 316 320 321 323 323 324 324 325 325 325 326 326 327 327 327 327 327 327 326
299 300 301 302 302 303 303 304 304 305 306 307 308 309 309 313 321 325 326 326 325 325 326 327 328 328 329 329 329 330 331 332 331 331 332 331 331 331 331 330 329 329 328 327 326 326 327 327 327 327 326 324 324 321 321 322 320 318 320 320 321 322 323 323 322 318 317 315 318 322 322 323 324 323 324 324 325 325 326 326 327 327 327 327 326
298 298 299 300 301 302 302 303 303 304 304 305 306 307 308 308 309 312 318 324 327 327 327 327 327 328 328 329 329 329 330 331 332 331 332 331 330 330 330 330 329 329 327 327 327 327 326 326 326 325 324 324 324 323 322 322 322 321 320 317 319 319 320 321 321 321 316 315 314 317 318 321 322 322 323 324 325 326 327 327 326 326 325 324 324
298 298 298 299 300 301 300 301 301 302 303 304 304 305 307 307 307 308 309 311 316 322 326 327 327 328 328 327 327 327 328 329 330 330 331 331 331 330 329 329 329 329 327 328 328 327 327 326 326 326 325 324 325 324 323 323 324 324 322 320 317 317 317 317 318 318 318 317 314 317 319 317 315 318 320 321 323 322 322 322 322 323 323 321 320
298 297 297 298 299 299 299 299 300 301 302 302 303 303 305 305 305 307 307 308 309 312 316 320 324 325 325 326 327 327 328 327 329 328 330 331 331 331 330 329 329 328 327 328 328 327 327 327 327 327 325 324 324 324 322 322 323 323 323 321 319 318 317 316 316 317 316 315 314 313 315 317 316 315 319 320 318 318 317 319 321 322 320 319 317
Wind_Speed
10 14 14 17 17 17 17 17 17 15 15 15 14 14 14 13 12 11 13 11 11 11 11 11 10 10 10 10 9 9 9 9 10 11 10 10 9 9 10 10 9 8 8 8 8 8 9 10 10 10 10 10 9 9 11 12 11 12 13 14 14 13 13 13 12 13 12 11 9 9 8 6 9 9 9 9 8 8 6 8 8 3 4 8 12
14 14 13 15 16 16 17 17 16 16 15 15 15 14 14 13 12 11 12 11 11 10 10 10 10 10 10 10 10 10 9 10 11 11 11 11 10 11 11 10 8 9 8 9 9 8 8 9 9 10 10 10 8 8 10 11 11 11 13 13 12 12 13 12 13 12 11 10 10 9 9 9 7 8 7 7 9 7 4 7 8 6 4 6 9
14 16 12 16 15 16 17 18 17 16 15 16 14 14 12 12 13 11 12 11 9 10 10 9 8 9 9 10 10 10 10 10 12 12 12 12 11 11 11 11 10 8 9 9 9 8 8 10 10 10 10 9 11 12 11 10 10 11 12 11 10 12 12 12 12 9 9 9 8 8 11 10 10 9 9 9 9 5 6 6 5 8 5 4 2
16 15 13 15 14 15 16 17 16 16 16 16 15 14 12 12 12 12 11 11 11 11 10 9 9 9 9 10 10 11 11 11 10 10 10 10 10 10 9 7 8 9 9 9 8 7 9 10 10 11 10 9 9 9 9 9 9 9 10 9 10 11 12 11 9 8 8 8 7 4 4 7 7 6 7 8 5 5 5 5 4 6 7 6 5
15 13 13 14 15 15 14 16 16 16 16 16 15 14 13 12 12 12 12 10 10 13 11 10 9 9 9 10 11 11 11 11 11 10 9 8 8 9 8 6 6 8 6 7 8 8 5 6 11 12 10 9 7 9 9 9 10 10 11 9 9 10 10 10 9 7 7 5 3 7 3 3 4 5 5 4 5 4 3 3 2 3 5 6 5
15 13 13 14 13 15 14 15 16 16 15 15 15 15 13 12 12 12 11 10 8 9 12 11 11 10 12 11 11 11 10 10 10 9 8 8 7 7 8 7 7 5 4 3 5 6 7 7 6 5 8 11 8 6 9 10 10 9 9 8 8 8 9 8 7 6 5 2 4 1 2 2 2 3 3 3 6 1 2 1 3 4 3 4 5
15 12 12 14 12 14 14 14 16 16 16 15 15 14 13 12 12 12 11 11 10 9 10 11 11 10 10 10 10 9 9 10 9 9 9 7 8 6 5 7 6 5 4 5 5 4 8 7 6 7 5 6 6 7 8 7 7 7 7 7 7 7 8 8 6 4 2 7 2 2 3 2 2 1 3 3 4 3 3 3 1 1 3 3 3
12 11 12 13 12 15 13 14 15 16 16 15 15 14 13 13 12 11 12 11 10 9 8 11 10 10 9 9 8 8 9 10 10 10 7 8 8 8 8 7 6 5 2 6 6 6 6 6 6 5 4 5 4 7 7 6 5 5 5 6 6 6 7 6 5 3 2 2 0 2 2 2 2 1 4 3 2 4 2 3 5 4 3 2 1
13 13 13 12 13 18 14 14 14 16 16 15 14 14 13 13 12 11 11 10 10 10 8 7 8 11 10 9 8 7 10 9 5 5 11 9 8 8 7 7 6 4 1 4 7 6 5 4 4 5 5 4 3 6 5 5 4 4 3 4 5 5 6 6 3 2 6 0 1 2 1 1 1 0 2 6 1 1 1 3 5 2 4 1 3
13 13 12 11 14 17 15 14 14 16 16 15 15 14 13 12 12 11 10 10 10 9 9 7 6 8 9 8 4 4 3 7 8 5 5 7 7 7 6 5 5 5 4 2 3 3 4 4 4 4 3 4 4 4 3 5 3 3 2 3 4 5 6 4 2 3 2 1 1 1 2 6 1 3 1 5 6 5 3 2 5 6 6 1 5
14 13 12 11 17 15 15 14 14 16 16 15 14 14 13 12 12 11 11 10 10 8 8 9 7 6 6 6 6 5 5 5 7 6 7 8 7 6 6 6 5 5 4 5 4 5 4 4 3 3 2 2 3 2 4 5 2 0 1 2 4 4 5 2 6 1 2 1 1 1 3 3 4 3 2 7 7 5 2 4 6 7 6 6 7
14 12 12 10 14 14 14 14 14 15 16 15 15 14 13 13 12 12 11 10 10 10 9 9 8 8 7 7 7 6 6 6 6 7 7 7 7 6 6 6 5 6 3 1 3 4 4 4 5 3 2 2 1 1 3 2 2 1 1 2 4 4 5 4 4 2 1 1 1 2 3 3 3 2 5 9 9 7 5 10 10 8 7 8 9
13 12 12 12 14 12 13 13 13 13 13 13 12 12 12 12 11 12 12 10 10 10 10 9 9 9 9 8 8 7 7 6 7 8 8 7 7 7 6 6 6 4 5 3 2 2 2 3 3 3 4 2 2 1 1 1 3 3 2 2 5 5 3 5 3 1 1 1 1 2 2 3 3 3 8 9 9 10 10 8 8 9 8 7 8
13 12 11 11 12 12 12 12 13 12 12 12 12 10 12 12 12 11 11 11 10 10 10 10 10 10 9 8 8 8 7 7 8 7 8 7 7 7 7 5 7 5 5 5 4 3 2 3 3 3 3 4 3 4 3 3 3 2 2 2 6 4 1 5 2 3 1 2 2 3 3 3 3 4 7 9 10 11 11 10 10 9 9 9 9
12 12 12 11 13 13 11 10 11 11 10 10 10 10 12 12 12 12 11 11 10 11 11 10 10 10 10 9 8 8 7 7 7 4 4 6 6 7 6 5 5 6 6 5 5 4 3 3 2 3 4 2 2 3 4 3 3 2 1 2 6 4 1 3 3 3 3 2 3 2 4 4 2 5 7 8 10 11 11 11 11 11 11 11 10
11 12 11 11 12 13 11 10 10 11 11 9 8 10 10 9 10 11 11 10 9 9 10 11 9 9 9 9 8 8 8 6 5 3 3 3 5 6 6 7 6 6 4 3 4 4 4 4 4 4 3 3 3 3 2 3 3 2 1 3 4 4 3 4 4 3 4 3 3 4 4 5 2 6 8 9 11 12 12 12 12 12 12 12 12
10 11 11 11 12 12 12 12 10 11 10 10 9 10 9 9 9 8 8 9 9 9 8 8 9 9 7 6 7 8 8 6 6 4 4 3 5 5 4 7 7 7 7 5 4 5 5 5 5 5 5 5 4 4 4 4 3 3 1 3 3 4 3 5 5 4 4 3 4 5 5 5 3 6 9 11 12 12 13 13 13 14 14 13 13
9 10 11 10 10 11 11 11 11 11 11 8 8 9 8 8 8 7 6 7 7 5 6 7 6 5 7 6 6 6 7 6 5 6 5 5 5 4 2 3 6 6 7 6 6 7 7 6 6 6 5 5 6 5 5 5 5 2 2 2 4 3 3 5 6 5 4 4 6 5 6 4 4 9 10 12 12 12 13 13 14 14 14 15 15
9 9 10 10 11 11 10 10 11 10 11 9 9 9 9 8 8 7 5 5 6 5 4 4 5 5 4 5 6 5 6 6 6 6 6 6 7 5 4 4 6 7 7 7 7 7 7 7 7 6 7 7 7 7 6 7 5 5 4 5 4 4 4 6 5 5 6 6 5 5 5 2 7 10 11 12 12 12 13 13 13 14 14 14 15
8 9 9 8 9 10 10 9 10 10 10 9 8 9 9 9 9 9 8 7 6 6 5 4 5 5 4 4 4 7 7 7 6 7 7 7 7 8 7 6 5 8 8 7 7 8 8 8 7 7 7 8 7 7 7 3 2 3 4 3 3 4 6 4 4 5 5 5 4 6 4 6 10 11 12 12 12 13 13 14 14 14 14 13 13
6 8 9 8 9 9 10 9 10 11 10 9 8 8 7 9 8 9 9 7 5 5 6 5 5 6 6 6 4 7 9 8 8 9 8 8 8 8 6 6 6 7 8 8 8 8 8 8 8 8 9 8 6 4 4 3 4 4 3 3 3 6 6 5 6 6 6 7 7 7 7 11 12 12 12 13 13 13 14 14 14 14 13 14 13
7 7 8 8 7 9 10 11 9 10 10 8 6 7 7 8 9 8 7 7 6 4 4 6 7 7 8 7 8 6 7 7 8 9 8 9 8 8 8 7 7 6 6 7 7 7 8 9 9 8 8 7 5 7 6 8 7 6 5 3 6 6 6 6 6 6 7 8 8 8 10 12 13 12 13 13 13 14 14 14 14 15 15 15 15
6 6 7 9 7 8 9 10 10 10 9 8 5 6 7 7 7 8 7 7 7 5 8 8 9 9 7 8 8 7 7 7 8 7 7 7 8 10 8 7 6 6 6 5 6 4 5 6 8 7 6 4 7 7 6 5 5 9 6 6 6 6 7 7 7 8 8 8 8 10 12 13 13 12 13 13 14 14 14 14 15 15 15 15 15
8 7 6 6 7 7 10 9 10 10 9 8 6 7 7 6 5 6 7 7 8 8 8 9 10 10 9 8 7 8 9 7 7 5 6 6 7 5 5 5 5 5 5 5 7 8 6 5 4 4 7 8 7 6 6 6 6 6 5 6 6 7 7 7 7 8 8 8 9 11 13 13 13 13 14 14 15 14 14 14 15 15 15 16 15
7 7 7 8 9 8 7 9 8 9 10 8 8 8 7 7 7 7 6 6 6 6 7 7 8 10 11 9 8 8 8 8 8 7 9 8 7 8 6 6 8 9 8 9 9 7 7 9 8 7 8 7 7 7 7 7 7 6 6 7 7 7 8 8 8 8 8 8 8 9 14 14 14 14 14 15 16 15 15 15 15 15 16 16 16
5 7 8 7 9 9 8 8 9 9 9 9 8 8 7 8 8 7 7 7 6 6 6 6 7 8 10 10 8 9 9 8 8 8 9 9 9 8 8 8 8 9 8 8 8 8 8 7 7 8 8 7 7 8 8 8 8 8 7 7 7 7 7 7 8 8 8 8 8 9 13 15 15 15 15 15 15 17 16 15 15 15 16 16 16
6 8 8 8 8 10 10 9 9 9 9 10 8 8 8 9 8 8 8 7 7 7 7 7 7 7 8 9 9 9 8 8 9 10 10 9 9 9 8 8 8 9 8 7 8 8 8 8 8 8 8 8 8 8 8 8 8 8 7 7 7 7 7 8 8 8 8 8 9 9 12 16 16 16 16 16 16 17 17 16 16 16 16 16 16
7 8 9 8 8 10 10 9 8 9 9 10 9 9 9 8 9 9 9 8 7 7 7 7 7 7 8 8 8 8 9 9 9 9 9 9 9 9 9 8 8 8 7 6 7 7 8 7 8 8 8 8 9 8 8 9 9 8 9 8 8 7 8 8 8 8 8 9 9 9 10 15 16 17 17 17 17 17 18 17 17 17 17 16 16
8 8 8 9 9 9 11 12 11 11 10 9 9 9 9 9 9 10 9 8 7 7 7 7 7 7 7 8 7 8 9 8 9 8 9 9 9 7 7 7 7 7 7 7 8 8 8 8 8 8 8 8 8 9 9 9 8 7 8 8 8 8 8 8 8 9 8 8 9 9 10 12 16 17 18 18 18 18 18 18 18 17 17 16 16
8 8 9 9 9 10 11 13 13 12 11 9 8 9 10 11 11 11 9 7 7 7 7 7 7 6 7 8 9 8 8 8 8 7 8 10 9 8 7 7 9 9 8 8 8 8 8 8 8 8 9 9 9 8 8 9 9 8 8 8 9 9 8 8 8 8 8 9 9 9 11 12 15 17 19 18 18 19 18 18 18 17 17 17 16
9 10 9 9 8 9 11 12 13 11 11 11 10 10 11 12 11 10 8 7 6 6 7 7 7 7 8 8 9 9 8 9 9 9 8 9 10 9 10 9 9 9 8 8 9 9 9 9 9 8 8 8 9 8 9 9 9 8 7 8 8 9 8 8 9 9 9 9 9 10 11 12 13 16 19 19 19 19 18 18 18 17 17 17 16
9 10 9 9 9 10 10 11 11 11 11 12 11 11 12 12 11 8 7 6 6 6 7 7 7 7 9 8 8 9 9 9 10 10 10 10 10 9 10 10 9 10 9 9 8 8 9 9 9 10 10 10 10 9 8 8 8 8 7 9 11 10 9 9 9 10 10 10 10 10 10 11 12 15 17 20 19 19 19 18 18 18 17 17 16
7 9 9 9 10 10 10 11 11 11 12 13 12 11 11 11 10 8 7 7 8 8 7 7 7 8 9 10 9 10 9 9 9 10 10 10 10 11 11 11 10 9 9 10 11 10 10 9 10 9 9 10 10 10 9 9 10 10 10 10 9 10 9 9 9 9 10 10 10 11 10 10 11 13 16 17 17 18 18 18 17 17 17 16 16
6 6 8 11 9 8 8 8 10 12 12 12 12 11 11 11 10 10 10 11 9 9 8 7 7 7 9 10 10 11 10 8 9 9 9 8 9 10 11 10 10 10 10 10 10 10 10 9 9 9 9 9 10 10 9 9 9 9 9 9 9 9 9 9 9 10 10 11 10 10 10 9 8 8 7 12 14 13 16 16 16 16 15 15 15
7 6 7 9 9 10 8 8 9 12 11 13 13 13 11 10 10 10 10 10 10 10 10 8 6 6 7 8 10 11 11 11 10 9 9 8 8 8 9 8 8 9 9 9 9 8 8 9 8 8 8 8 9 9 9 9 9 10 9 8 9 9 9 10 10 11 11 11 10 10 9 8 9 9 8 8 8 14 14 14 15 15 15 14 15
10 9 8 7 8 9 10 11 11 11 12 13 13 12 12 11 10 9 9 10 10 11 11 10 9 9 9 8 9 10 11 12 11 11 10 9 8 8 8 8 9 8 8 8 8 8 8 8 8 8 9 9 8 9 8 9 9 10 9 10 10 9 10 9 10 11 11 10 9 9 8 9 8 8 8 8 8 7 8 11 13 14 14 14 13
14 13 10 8 8 8 9 12 13 13 12 13 13 13 11 11 11 10 11 10 10 10 11 10 10 10 10 10 10 10 11 11 11 11 10 10 9 9 9 9 9 9 9 9 9 8 8 8 9 9 9 9 9 10 9 9 9 9 10 11 11 10 10 10 10 10 9 10 10 9 9 9 9 8 9 8 8 7 8 11 10 12 12 12 12
14 16 16 12 10 9 8 10 10 12 12 11 12 12 11 11 11 11 11 11 12 11 11 11 11 11 11 11 11 11 11 11 12 11 10 10 9 9 9 10 9 9 9 9 9 9 9 9 9 9 9 10 10 10 9 9 8 9 9 10 10 10 10 10 10 10 9 10 9 9 8 8 7 8 8 8 7 7 6 7 10 10 10 10 10
14 17 17 15 13 11 9 9 10 10 11 12 12 10 10 11 11 11 12 12 11 12 12 12 12 11 11 11 11 11 11 12 12 12 11 10 10 10 10 10 9 9 9 10 10 10 10 10 11 10 10 10 10 10 9 9 9 10 10 11 10 11 11 11 10 9 9 9 8 8 7 7 7 7 7 7 6 6 6 4 4 4 6 12 9
15 16 17 17 16 15 13 11 10 10 10 10 9 10 8 10 10 10 11 11 11 11 12 12 12 12 12 11 11 11 11 11 12 12 11 10 10 10 10 10 10 10 10 10 10 10 11 12 13 12 12 11 9 10 10 10 10 12 12 12 12 12 13 11 11 10 8 8 7 6 6 6 6 5 6 5 5 4 4 4 4 3 3 7 8
18 19 18 17 17 15 15 15 13 11 9 8 8 9 10 8 9 11 11 11 12 12 12 12 12 12 12 11 11 11 12 12 12 12 12 11 11 10 11 11 10 10 11 12 12 13 12 12 11 10 11 12 11 9 9 8 8 10 10 11 10 10 11 12 11 9 8 6 6 6 5 5 5 5 5 5 4 5 4 4 3 3 3 2 5
20 19 19 17 15 16 16 15 12 12 11 10 9 9 10 10 10 10 10 10 11 11 11 11 12 12 12 12 11 12 13 13 12 12 13 13 12 11 11 11 11 12 12 13 13 13 12 12 10 10 10 11 10 9 7 5 6 7 6 6 6 7 7 6 7 7 6 6 5 4 4 5 4 4 4 4 4 5 5 4 4 3 3 2 2
19 19 18 19 18 17 16 16 13 13 11 11 10 10 10 11 12 11 10 10 10 10 10 10 10 10 11 12 12 12 12 12 13 13 12 13 13 12 12 11 13 12 12 13 13 14 13 14 14 12 10 10 9 9 9 10 7 4 5 6 6 3 4 5 5 5 5 4 4 5 5 5 5 4 3 3 4 5 4 4 4 3 3 3 3
19 20 20 21 16 17 17 17 15 15 13 13 10 10 12 12 12 13 13 12 11 9 9 11 12 11 12 12 12 12 13 13 13 13 12 13 13 13 12 12 12 12 12 12 13 13 12 12 12 13 12 11 10 8 10 11 9 5 5 6 3 2 7 4 1 5 5 4 5 6 6 6 6 5 3 4 4 4 4 4 4 3 3 3 3
19 19 19 18 15 18 19 17 14 14 14 16 17 11 7 8 9 10 11 12 12 11 11 12 12 12 12 13 13 12 13 13 13 13 13 13 13 13 13 12 12 12 11 12 12 13 12 11 11 12 14 12 11 10 8 11 13 11 8 4 4 4 6 0 1 4 6 6 7 7 7 7 6 5 5 4 3 4 4 4 3 3 3 3 4
19 18 17 17 18 17 19 19 16 15 16 17 18 15 9 8 6 6 9 8 9 9 10 9 8 9 10 10 11 11 13 13 13 13 13 13 13 14 13 13 12 11 11 12 12 12 13 12 12 12 13 14 11 10 10 9 11 13 14 11 7 7 4 2 1 3 5 6 7 9 8 8 7 7 5 4 4 5 5 4 4 4 4 4 3
18 17 17 17 19 18 18 18 16 15 16 18 19 15 15 10 10 9 10 10 10 10 8 7 6 8 9 11 10 9 11 12 13 13 13 14 14 13 13 13 13 12 10 10 12 13 12 12 10 11 12 10 11 12 12 9 8 10 12 14 13 11 8 6 6 4 7 4 6 7 8 8 8 8 7 6 6 6 4 4 4 4 4 4 4
16 16 17 17 20 20 20 19 16 16 16 18 18 17 14 16 15 11 9 10 9 12 10 9 9 9 11 12 9 8 9 10 11 11 12 13 13 13 13 12 12 12 11 12 13 12 11 10 10 11 11 11 12 12 11 10 10 7 9 13 13 13 13 12 12 10 8 9 6 7 7 7 7 8 8 7 8 7 6 5 5 5 5 4 4
17 17 16 16 16 17 19 19 19 17 17 21 18 19 16 16 14 14 15 12 11 9 10 9 8 8 12 11 10 10 9 9 9 10 11 11 11 14 14 13 13 13 12 12 13 12 13 12 12 12 13 12 12 12 11 10 10 11 9 10 11 11 11 11 11 11 10 9 12 11 10 7 7 8 6 6 6 5 3 4 4 5 5 4 4
15 16 16 16 16 16 20 21 21 18 18 20 19 20 18 16 15 16 17 15 15 13 11 10 10 9 8 8 8 8 8 7 8 9 10 11 11 12 11 13 14 13 12 13 13 13 12 13 13 13 13 13 12 12 13 11 10 11 12 9 9 10 10 9 10 11 11 12 12 9 7 8 8 6 6 6 6 3 2 2 3 4 5 4 5
16 17 17 17 16 17 19 21 20 18 19 19 20 20 17 17 15 17 18 17 18 16 15 13 12 11 11 11 9 7 7 8 7 7 9 10 11 11 11 11 11 11 12 14 13 12 11 12 12 14 14 15 13 13 13 13 11 11 12 11 11 11 11 12 12 12 12 11 11 13 12 9 6 6 6 5 3 2 3 4 5 5 6 5 5
Wind_Direction
175 163 164 161 170 167 164 162 153 151 150 153 153 149 144 141 143 146 141 149 142 142 145 148 143 139 144 144 142 136 134 132 132 126 125 121 116 114 109 103 104 104 94 93 91 92 106 106 100 92 92 99 101 103 90 86 79 79 78 78 75 76 68 69 65 62 53 64 84 84 83 74 83 80 77 81 71 59 42 33 356 98 76 56 42
160 168 164 163 169 166 165 161 155 149 155 154 151 148 149 145 143 146 141 144 143 147 128 136 143 148 147 146 143 140 133 130 127 127 128 123 120 111 112 112 108 105 106 105 98 100 96 105 106 101 98 99 112 102 93 89 84 90 83 75 76 77 72 64 58 55 57 63 60 65 82 85 92 99 95 81 69 65 49 41 16 336 77 49 47
155 164 164 161 163 165 166 161 158 152 156 153 150 149 150 148 144 147 144 144 148 145 128 135 143 149 148 145 144 137 128 130 127 129 133 133 133 128 128 122 115 106 116 114 115 111 108 106 109 100 93 86 95 91 88 83 83 85 88 83 80 78 74 66 61 55 56 54 58 81 84 82 68 74 85 84 85 66 353 77 37 335 67 37 66
155 164 163 153 165 163 162 163 157 153 156 154 150 148 143 139 141 145 148 149 157 131 132 132 136 146 145 143 140 135 132 129 130 136 137 146 118 102 87 106 100 91 109 112 111 102 104 110 114 108 100 103 98 91 92 95 93 99 100 88 79 80 77 75 78 75 62 54 31 323 106 106 93 75 77 72 63 58 35 59 24 31 47 51 40
158 161 163 161 170 159 157 161 153 153 156 153 149 150 144 142 142 147 150 155 147 137 136 132 129 135 132 138 133 132 131 134 146 150 157 136 128 117 114 94 102 102 73 88 88 93 104 122 124 115 112 96 90 96 100 106 102 89 86 91 81 77 77 71 65 68 69 62 8 269 104 110 105 61 57 84 98 59 27 63 40 33 14 14 18
158 161 161 163 167 155 156 153 150 151 154 152 150 150 148 145 147 150 150 149 147 151 140 132 125 127 132 141 132 134 139 144 152 162 124 120 112 126 119 102 104 93 96 134 137 94 71 67 74 92 103 97 97 103 100 97 101 95 87 86 86 78 77 73 65 64 74 57 249 112 110 115 97 132 27 57 109 173 222 31 12 55 42 1 359
158 161 161 162 161 157 153 151 151 150 151 152 152 151 149 149 149 151 152 151 153 157 149 134 129 128 133 133 136 143 152 150 141 109 79 95 127 117 124 119 101 122 108 60 44 100 86 79 78 87 85 111 112 118 115 114 98 95 89 87 84 81 74 71 72 74 64 238 92 75 88 98 88 114 46 100 139 140 50 22 25 37 47 9 2
159 162 163 160 162 151 152 150 152 151 150 153 154 153 152 152 153 156 155 153 156 158 155 140 139 134 134 140 146 160 137 129 129 125 118 98 96 113 116 114 107 78 82 121 85 81 94 83 85 88 84 79 130 127 122 111 107 100 92 82 81 83 79 77 75 74 265 252 357 37 67 98 154 190 48 343 125 65 47 356 8 351 358 39 356
163 165 163 160 154 149 148 149 151 151 151 154 156 157 157 157 159 161 157 155 160 159 158 158 148 144 142 146 151 169 146 132 119 141 129 112 108 106 105 110 109 116 125 158 98 85 84 100 101 93 112 126 159 131 152 112 88 90 90 93 83 83 86 78 77 220 208 13 217 100 202 123 100 117 103 356 33 176 17 343 193 183 210 176 257
165 166 161 162 156 147 149 151 152 153 154 156 159 161 164 163 165 165 161 162 165 156 158 163 166 166 151 147 127 142 114 134 129 114 115 128 116 118 117 118 127 125 146 179 143 106 129 123 107 116 124 157 167 154 184 131 94 102 94 94 92 84 84 94 131 229 328 207 138 195 63 340 274 248 43 319 312 332 283 245 324 326 342 215 253
166 165 165 162 154 146 150 153 154 156 155 158 162 165 168 169 169 172 169 167 167 163 162 163 178 163 156 168 160 139 132 126 135 149 133 133 129 125 120 115 119 119 159 157 177 154 145 131 124 112 142 169 181 64 125 116 127 112 96 127 101 93 89 93 254 352 344 336 247 274 123 197 271 270 17 305 311 327 291 251 227 232 239 243 239
167 162 165 161 137 147 152 154 157 160 160 161 166 168 172 174 173 174 176 170 171 171 175 168 172 177 174 182 178 157 146 153 153 157 153 147 139 139 133 132 134 155 165 36 128 147 148 125 122 129 192 176 71 4 345 350 243 227 173 155 109 82 52 4 293 2 330 324 323 299 301 247 290 311 317 299 305 299 261 256 244 223 241 252 247
165 166 166 156 155 147 155 156 158 161 163 166 167 171 171 173 173 173 177 178 174 174 178 177 174 181 182 186 188 176 170 173 179 175 167 164 158 155 158 162 154 148 145 156 129 139 140 144 142 156 161 156 172 250 255 295 248 223 187 166 105 77 52 328 286 280 313 312 321 245 264 263 271 311 302 302 304 309 309 298 302 289 283 282 283
170 170 167 160 160 152 157 159 159 164 166 167 166 162 165 172 176 176 179 181 180 177 180 183 180 183 185 187 189 182 180 180 184 184 168 166 170 170 164 175 156 167 168 164 162 175 180 175 168 170 190 191 175 193 182 222 233 235 197 178 110 93 354 237 291 276 267 272 267 297 279 284 284 353 306 299 302 306 305 304 294 274 275 276 273
171 172 169 165 162 165 156 158 161 163 158 163 168 160 165 173 176 175 181 186 185 181 181 184 186 188 188 189 188 185 189 186 184 169 150 168 175 167 173 187 174 192 171 179 183 174 193 214 226 185 216 217 221 213 203 233 237 266 254 136 114 124 245 296 277 288 274 264 268 252 266 271 3 305 297 287 286 290 295 292 290 291 284 276 281
174 174 169 171 169 167 169 156 159 155 160 166 159 152 157 170 172 177 181 188 187 195 188 183 189 194 195 192 191 192 196 188 170 162 162 165 188 191 192 193 193 206 199 194 179 190 203 213 212 216 229 238 234 253 260 248 250 281 357 105 130 137 162 298 284 287 273 270 280 272 268 264 267 286 284 282 278 279 282 284 285 284 284 285 281
171 176 174 176 173 171 176 174 161 155 158 167 159 161 165 164 169 173 184 187 188 200 202 206 192 194 204 199 196 197 199 196 169 169 168 185 206 219 227 213 200 205 206 210 213 211 230 220 223 223 228 235 235 243 259 255 257 258 285 143 141 156 171 260 286 275 285 286 280 277 273 271 250 283 280 276 276 275 273 275 278 281 281 281 281
169 176 182 174 180 178 179 179 165 174 170 154 154 160 160 158 163 168 177 181 189 197 191 201 238 220 199 210 205 205 202 202 177 171 183 192 213 224 250 251 222 221 218 215 220 222 226 228 237 242 246 247 240 237 247 257 262 273 198 185 198 187 199 232 283 272 272 277 270 262 269 259 278 276 276 274 273 272 272 272 274 275 277 280 281
174 185 187 183 188 186 185 182 180 181 176 183 181 156 147 136 143 146 146 156 167 173 185 209 219 252 249 210 212 216 214 204 189 184 187 197 204 212 227 241 238 236 236 236 233 236 240 242 242 247 244 245 256 261 254 246 227 214 214 220 215 221 202 241 260 279 279 268 267 267 265 295 276 277 275 273 271 271 272 274 274 273 274 274 278
187 191 194 191 197 193 196 191 188 189 184 183 183 176 146 142 134 126 123 120 128 139 155 191 226 263 274 320 281 226 210 209 189 199 191 201 205 218 201 225 236 239 240 242 245 248 251 252 254 254 259 259 259 258 263 274 253 240 239 241 236 233 251 259 278 277 280 275 276 276 266 268 280 281 279 275 272 271 271 270 273 276 278 278 274
192 199 200 198 204 202 202 201 198 197 196 194 189 186 151 148 143 140 139 137 125 115 120 157 209 219 243 233 244 238 226 225 203 225 186 207 208 211 213 211 230 241 246 245 247 251 257 258 255 254 254 263 274 282 267 244 204 216 223 214 232 257 270 275 283 283 277 279 272 267 271 276 280 281 277 274 271 270 274 276 277 281 283 286 280
194 198 205 201 203 210 204 208 204 201 202 199 199 192 176 186 202 187 189 165 144 159 185 219 210 228 194 220 230 225 230 230 229 224 221 218 205 206 212 219 225 233 245 256 261 256 252 254 255 257 260 265 263 264 241 205 215 235 231 239 251 272 269 269 274 275 279 278 276 277 281 276 278 278 276 273 270 272 274 276 277 278 277 277 279
200 201 201 205 205 215 207 212 211 207 204 204 204 200 195 202 206 212 214 211 209 193 234 228 234 231 221 218 224 221 224 233 231 225 227 218 231 182 209 222 229 238 243 256 267 278 273 272 265 274 288 271 257 254 256 272 255 188 209 230 266 272 278 279 277 280 279 281 278 274 273 273 274 274 275 275 276 275 275 277 277 277 279 281 280
204 204 203 206 209 212 214 215 216 212 212 211 208 213 216 216 220 213 218 217 220 227 228 236 233 233 231 224 221 226 225 231 226 200 208 222 221 182 205 226 242 248 257 256 232 239 247 249 252 276 260 251 253 255 264 269 264 279 283 281 278 280 281 280 283 282 279 274 270 272 273 272 272 274 275 277 277 275 275 277 278 279 278 278 279
212 210 210 210 210 210 211 219 221 217 217 219 218 222 216 223 229 230 231 229 225 225 229 227 232 233 231 231 228 220 226 230 227 220 228 225 229 231 210 224 234 241 201 250 248 242 213 251 247 226 252 255 258 261 266 262 264 267 274 281 280 281 278 279 277 278 275 273 269 262 267 267 269 272 271 271 275 277 277 276 275 277 278 279 279
205 216 215 213 212 209 208 211 215 219 220 224 226 227 217 227 230 232 236 233 228 231 232 231 230 227 230 230 231 230 231 236 232 229 227 230 229 231 235 233 236 242 239 246 249 248 254 252 249 255 256 258 260 266 267 266 270 266 265 264 270 269 264 271 277 274 272 270 265 240 255 263 266 267 270 272 271 273 274 275 276 277 277 275 275
217 224 218 218 216 214 212 210 210 214 219 224 228 231 227 233 237 236 237 232 229 234 236 237 236 235 227 227 231 231 232 230 231 232 235 234 233 232 236 237 239 243 243 245 247 247 248 250 253 253 258 259 257 259 261 266 267 267 269 275 274 269 271 275 277 277 273 272 271 245 247 260 262 264 266 269 271 274 276 278 278 277 275 275 276
229 231 228 225 221 218 216 211 211 211 217 221 227 229 234 236 239 239 236 237 235 234 236 236 241 239 230 233 233 235 233 235 232 231 236 240 236 235 235 240 240 237 244 245 246 251 251 251 253 254 258 258 263 259 257 255 257 262 268 268 270 266 268 277 272 267 268 268 270 261 242 256 260 263 265 267 269 270 272 274 276 276 277 276 275
236 234 232 229 228 224 219 217 218 218 219 220 225 230 235 236 238 239 238 232 231 235 237 237 235 239 242 236 241 243 235 236 241 243 240 237 236 240 251 254 251 246 241 241 243 249 253 254 256 257 257 259 259 259 261 265 265 263 265 270 275 274 272 267 267 267 269 270 272 268 250 249 257 261 263 265 268 271 273 274 275 275 275 276 277
243 241 235 235 234 225 224 224 220 218 217 217 222 227 233 239 240 240 236 225 230 235 238 236 235 236 242 236 238 246 247 239 236 244 255 246 237 230 224 230 235 236 240 241 242 245 250 252 257 261 262 261 261 263 265 264 260 266 265 264 272 276 276 273 272 272 272 270 270 271 258 248 253 257 262 263 264 267 269 271 273 273 273 274 275
254 249 244 243 238 234 230 228 227 224 223 221 221 227 231 238 239 235 225 225 226 227 229 233 233 232 240 241 243 241 251 253 246 238 238 245 250 257 250 244 245 242 240 250 254 251 252 258 260 263 265 268 268 271 268 270 274 271 255 239 265 277 271 266 266 265 266 268 267 269 271 257 248 251 258 260 261 263 265 267 269 271 273 274 273
252 252 249 248 246 241 240 237 231 226 225 227 226 229 234 236 235 229 228 230 228 230 229 226 233 239 242 238 238 239 240 249 251 253 252 250 246 246 251 254 254 253 254 258 258 255 255 259 257 257 262 266 270 269 270 272 267 255 246 264 277 273 272 272 270 267 266 264 267 267 268 266 248 243 249 253 256 257 261 263 266 269 272 273 273
264 262 258 250 249 247 243 241 238 234 226 229 231 233 235 234 232 233 233 235 241 244 236 226 223 231 240 243 241 240 238 242 247 249 251 252 252 252 254 252 251 255 256 257 261 264 265 262 261 263 267 267 267 267 266 266 270 271 270 270 273 272 271 272 269 267 265 263 264 264 264 262 263 236 226 237 243 249 255 259 264 268 271 272 273
289 285 271 261 256 251 246 241 237 234 231 232 233 234 233 235 236 237 240 244 244 247 245 233 225 228 231 232 238 240 238 237 239 244 248 250 250 251 251 252 253 253 255 257 258 256 258 259 261 261 260 263 264 266 266 264 266 270 271 271 268 269 272 269 266 266 266 265 262 263 260 259 260 269 260 222 227 238 244 253 259 264 267 268 270
306 291 272 263 264 261 247 249 236 236 232 233 234 235 235 233 233 235 237 234 240 247 250 244 228 229 227 227 228 236 238 237 236 241 242 244 245 245 246 249 250 254 255 252 253 255 255 259 260 259 261 260 261 263 266 269 269 267 269 272 269 271 269 266 268 268 264 261 260 261 260 264 265 271 268 278 236 214 228 244 254 260 262 263 265
348 325 308 278 263 259 256 255 252 244 240 237 235 238 239 240 239 239 239 233 237 245 251 249 248 247 241 234 221 223 233 234 233 234 241 242 241 244 245 248 249 249 246 248 246 249 251 254 253 256 263 262 261 261 261 265 265 268 270 271 274 275 273 270 263 263 261 261 257 255 261 264 267 264 274 272 274 270 211 222 241 254 255 257 261
7 0 345 322 292 276 264 256 253 255 249 245 240 239 241 244 243 241 239 239 237 240 245 249 248 246 247 246 236 233 231 228 227 229 234 236 237 242 247 249 249 249 250 250 249 248 251 252 256 256 257 266 266 266 265 265 266 267 271 269 268 268 265 264 263 263 261 257 257 258 260 262 263 268 266 261 265 260 232 204 229 239 247 252 255
12 11 6 353 332 313 292 275 262 260 261 253 246 242 239 239 242 241 239 238 239 240 246 246 246 245 245 244 240 232 229 225 223 223 228 230 233 238 242 243 243 243 244 244 245 245 245 245 253 253 254 258 261 263 262 265 271 272 270 267 267 263 263 263 262 262 259 259 259 260 259 261 259 259 256 256 256 254 260 191 202 228 237 241 242
15 15 10 6 357 343 317 297 278 267 260 263 258 244 243 245 241 242 242 239 240 242 243 247 245 244 244 242 236 232 228 226 223 221 224 227 229 234 240 239 237 238 238 240 242 241 240 242 245 250 249 251 256 259 264 269 271 272 271 271 272 266 266 264 263 257 255 256 259 263 266 259 258 253 251 246 242 246 235 249 220 210 208 211 226
16 14 12 11 7 0 349 328 308 294 283 274 267 258 246 246 245 243 243 241 240 243 244 245 247 246 244 242 239 234 231 226 223 222 223 225 230 231 233 234 235 234 233 233 236 238 236 236 241 246 251 253 245 252 256 262 268 273 275 273 264 262 256 254 251 249 249 253 256 252 247 242 242 240 233 226 227 224 228 233 230 224 215 175 198
19 13 11 10 10 5 1 350 334 319 300 285 272 265 256 247 247 249 246 242 245 246 247 246 246 248 248 244 242 242 238 234 226 222 224 224 228 232 232 233 229 230 231 235 238 239 238 238 244 239 240 247 251 245 243 250 265 277 271 263 258 245 243 242 248 247 247 248 246 244 234 236 225 227 212 219 220 217 226 217 220 219 213 204 182
11 12 12 6 1 1 3 351 343 336 319 300 288 274 264 264 264 260 258 258 253 247 248 249 248 249 248 248 245 244 244 241 236 232 232 231 231 233 235 235 231 233 236 241 243 242 238 236 235 246 238 239 250 243 232 194 244 253 287 300 285 257 232 236 236 234 235 235 238 231 228 217 209 196 198 204 207 212 213 212 210 211 215 219 228
8 11 9 8 8 5 359 351 344 341 335 319 298 284 274 266 264 268 269 270 265 264 264 262 255 251 251 248 246 246 247 246 244 240 240 238 237 237 238 238 236 237 241 244 244 243 240 237 234 238 249 240 242 244 232 205 250 259 280 294 281 285 168 205 199 211 202 222 210 219 214 207 202 199 200 211 210 206 211 213 209 215 213 218 223
9 9 8 7 6 5 359 354 355 353 345 339 311 280 275 273 272 273 271 270 276 285 281 271 268 262 255 251 249 247 246 247 245 245 242 243 242 241 241 241 241 238 240 246 245 243 238 238 235 234 237 252 243 236 221 224 226 226 253 221 292 330 300 206 222 181 197 203 203 204 198 207 202 212 223 228 225 219 209 206 207 210 209 213 220
11 9 8 7 2 360 359 358 358 360 357 351 344 317 272 267 268 269 272 277 273 269 270 266 261 260 261 257 253 248 247 247 246 245 245 246 246 244 243 244 245 243 241 245 248 247 243 238 232 232 228 233 248 250 223 209 221 225 244 253 248 239 240 35 285 219 171 197 207 206 201 212 214 218 231 236 235 230 219 197 201 198 202 212 209
12 9 6 5 4 2 1 1 1 2 1 356 352 347 323 298 279 269 275 271 276 275 264 256 257 256 254 260 257 246 252 250 249 247 246 245 247 247 247 248 248 248 244 245 249 250 246 238 231 231 236 234 243 249 250 202 217 225 232 242 266 285 315 124 34 262 150 210 201 200 205 212 226 226 238 259 245 233 220 198 190 195 199 204 188
8 4 3 3 5 7 5 5 4 1 2 359 358 359 352 332 307 293 286 283 286 283 276 270 264 269 273 272 260 245 233 238 244 246 248 246 246 247 246 246 248 251 248 247 247 246 247 245 234 227 236 236 230 240 242 241 213 231 235 242 253 259 265 276 264 282 280 180 203 201 208 217 229 232 246 267 262 253 222 198 187 199 193 187 187
3 4 4 3 4 5 5 6 6 4 3 1 1 3 359 356 343 322 297 291 285 289 289 284 290 289 284 279 272 254 239 231 235 235 238 245 247 247 246 246 247 247 246 244 244 244 245 245 239 236 235 234 230 231 240 238 231 235 222 236 241 247 251 251 250 260 271 277 242 212 218 230 221 226 246 257 254 245 235 191 192 197 202 183 179
12 9 6 3 1 2 4 5 7 6 4 3 2 4 4 0 0 357 344 329 309 293 291 291 280 281 281 281 277 275 262 240 234 237 237 235 235 248 245 245 244 243 238 242 243 242 240 239 237 232 231 232 231 232 234 238 235 240 229 222 230 237 239 239 245 238 239 247 259 252 247 204 219 237 242 234 249 254 245 218 186 206 212 177 176
10 8 7 6 6 5 4 6 8 5 3 3 2 1 4 3 2 355 353 347 342 329 317 307 303 297 283 276 270 273 267 255 235 232 238 243 237 233 232 237 244 245 242 240 242 241 239 237 236 233 231 232 232 231 232 235 235 234 230 222 209 220 228 233 229 229 237 237 250 256 241 243 230 224 231 241 235 223 206 194 182 183 197 164 150
10 9 9 7 6 8 4 6 7 4 3 2 1 2 1 2 1 357 353 349 346 342 336 328 320 312 307 304 294 273 253 258 255 246 237 238 238 236 236 234 238 245 245 245 242 238 238 239 237 235 232 230 229 225 225 233 239 236 231 226 222 209 204 209 211 212 213 218 226 242 243 243 234 247 220 222 244 177 182 190 183 187 189 167 153